GW4434 Weather Reports


time (UTC)temp
C
wind
direction
speed
KPH
gust
KPH
rain 1hr
cm
rain 24hr
cm
rain mn
cm
humidity
%
barometer
mb
20260506182321 26 195 0.0 3.2 0.00 0.00 0.00 51 1015.8
20260506181819 26 191 1.6 3.2 0.00 0.00 0.00 50 1015.9
20260506181316 25 192 0.0 1.6 0.00 0.00 0.00 51 1016.0
20260506180813 25 215 1.6 3.2 0.00 0.00 0.00 54 1016.1
20260506180309 25 199 1.6 1.6 0.00 0.00 0.00 55 1016.3
20260506175806 24 180 0.0 0.0 0.00 0.00 0.00 57 1016.3
20260506175306 24 192 0.0 1.6 0.00 0.00 0.00 59 1016.3
20260506174800 24 183 0.0 3.2 0.00 0.00 0.00 57 1016.3
20260506174257 24 173 0.0 1.6 0.00 0.00 0.00 57 1016.7
20260506173755 24 207 1.6 3.2 0.00 0.00 0.00 58 1016.9
20260506173251 24 187 0.0 3.2 0.00 0.00 0.00 57 1016.9
20260506172748 24 178 0.0 0.0 0.00 0.00 0.00 57 1017.0
20260506172245 23 227 3.2 3.2 0.00 0.00 0.00 60 1017.3
20260506171742 23 238 1.6 3.2 0.00 0.00 0.00 60 1017.2
20260506171239 23 205 1.6 3.2 0.00 0.00 0.00 61 1017.2
20260506170737 23 205 1.6 3.2 0.00 0.00 0.00 62 1017.3
20260506170233 23 198 0.0 1.6 0.00 0.00 0.00 62 1017.4
20260506165732 22 194 0.0 1.6 0.00 0.00 0.00 63 1017.5
20260506165229 22 187 0.0 0.0 0.00 0.00 0.00 63 1017.4
20260506164726 22 190 0.0 1.6 0.00 0.00 0.00 63 1017.5
20260506164222 22 191 0.0 1.6 0.00 0.00 0.00 63 1017.5
20260506163719 22 189 1.6 1.6 0.00 0.00 0.00 62 1017.8
20260506163214 22 170 0.0 0.0 0.00 0.00 0.00 63 1018.0
20260506162710 22 182 0.0 0.0 0.00 0.00 0.00 64 1017.9
20260506162208 22 182 0.0 0.0 0.00 0.00 0.00 64 1017.8
20260506161705 22 185 0.0 0.0 0.00 0.00 0.00 63 1017.9
20260506161202 23 194 0.0 1.6 0.00 0.00 0.00 61 1017.6
20260506160700 23 188 0.0 1.6 0.00 0.00 0.00 61 1017.6
20260506160156 23 187 0.0 3.2 0.00 0.00 0.00 61 1017.7
20260506155655 23 181 0.0 0.0 0.00 0.00 0.00 60 1017.4
20260506155151 23 202 1.6 3.2 0.00 0.00 0.00 60 1017.4
20260506153253 23 214 0.0 1.6 0.00 0.00 0.00 62 1017.3
20260506152750 23 194 0.0 1.6 0.00 0.00 0.00 59 1017.3
20260506152248 23 187 0.0 1.6 0.00 0.00 0.00 60 1017.4
20260506151747 23 201 1.6 1.6 0.00 0.00 0.00 60 1017.3
20260506151243 23 254 3.2 3.2 0.00 0.00 0.00 60 1017.3
20260506150739 23 210 1.6 1.6 0.00 0.00 0.00 59 1017.1
20260506150237 23 203 1.6 1.6 0.00 0.00 0.00 60 1017.0
20260506145734 22 182 0.0 1.6 0.00 0.00 0.00 61 1016.9
20260506145230 22 190 0.0 1.6 0.00 0.00 0.00 63 1016.9
20260506144727 22 187 0.0 0.0 0.00 0.00 0.00 63 1017.0
20260506144224 22 187 0.0 0.0 0.00 0.00 0.00 63 1017.0
20260506143722 21 178 0.0 0.0 0.00 0.00 0.00 63 1016.9
20260506143219 21 200 1.6 1.6 0.00 0.00 0.00 63 1017.1
20260506142718 21 190 1.6 1.6 0.00 0.00 0.00 64 1016.8
20260506142215 21 189 0.0 0.0 0.00 0.00 0.00 64 1017.1
20260506141713 20 189 0.0 0.0 0.00 0.00 0.00 65 1017.2
20260506141211 20 188 0.0 1.6 0.00 0.00 0.00 66 1017.1
20260506140709 20 188 0.0 0.0 0.00 0.00 0.00 66 1017.0
20260506140205 20 191 0.0 0.0 0.00 0.00 0.00 66 1017.2
20260506135702 20 179 0.0 0.0 0.00 0.00 0.00 67 1017.1
20260506135158 20 197 0.0 0.0 0.00 0.00 0.00 67 1017.1
20260506134655 20 197 0.0 0.0 0.00 0.00 0.00 68 1017.2
20260506134151 20 188 0.0 0.0 0.00 0.00 0.00 68 1017.1
20260506133648 20 180 0.0 0.0 0.00 0.00 0.00 67 1017.2
20260506133145 20 200 0.0 1.6 0.00 0.00 0.00 67 1017.1
20260506132643 20 174 0.0 0.0 0.00 0.00 0.00 67 1017.2
20260506132139 20 185 0.0 1.6 0.00 0.00 0.00 67 1017.1
20260506131637 20 196 0.0 1.6 0.00 0.00 0.00 66 1017.1
20260506131133 20 196 0.0 1.6 0.00 0.00 0.00 66 1016.9
20260506130630 20 196 0.0 0.0 0.00 0.00 0.00 66 1016.9
20260506130127 19 192 0.0 0.0 0.00 0.00 0.00 67 1016.9
20260506125626 19 185 0.0 0.0 0.00 0.00 0.00 67 1017.1
20260506125123 19 188 0.0 0.0 0.00 0.00 0.00 66 1017.1
20260506124621 19 188 0.0 1.6 0.00 0.00 0.00 67 1017.0
20260506124118 19 188 0.0 0.0 0.00 0.00 0.00 68 1017.1
20260506123616 19 195 0.0 1.6 0.00 0.00 0.00 66 1017.4
20260506123114 19 184 0.0 0.0 0.00 0.00 0.00 67 1017.1
20260506122610 18 185 0.0 0.0 0.00 0.00 0.00 67 1017.1
20260506122108 18 207 0.0 0.0 0.00 0.00 0.00 67 1017.0
20260506121606 18 142 0.0 1.6 0.00 0.00 0.00 67 1017.0
20260506121102 18 199 0.0 1.6 0.00 0.00 0.00 68 1016.8
20260506120600 18 181 0.0 0.0 0.00 0.00 0.00 69 1016.9
20260506120057 18 184 0.0 1.6 0.00 0.00 0.00 69 1016.8
20260506115555 18 190 0.0 0.0 0.00 0.00 0.00 70 1016.7
20260506115053 18 186 0.0 0.0 0.00 0.00 0.00 70 1016.6
20260506114550 18 185 0.0 0.0 0.00 0.00 0.00 69 1016.7
20260506114048 17 155 0.0 0.0 0.00 0.00 0.00 71 1016.5
20260506113546 17 191 0.0 0.0 0.00 0.00 0.00 70 1016.6
20260506113043 17 190 0.0 0.0 0.00 0.00 0.00 70 1016.4
20260506112540 17 183 0.0 0.0 0.00 0.00 0.00 70 1016.1
20260506112037 17 188 0.0 0.0 0.00 0.00 0.00 71 1016.1
20260506111535 17 169 0.0 0.0 0.00 0.00 0.00 71 1016.1
20260506111032 17 180 0.0 0.0 0.00 0.00 0.00 71 1015.9
20260506110530 17 147 0.0 0.0 0.00 0.00 0.00 71 1015.9
20260506110027 17 151 0.0 1.6 0.00 0.00 0.00 71 1015.8
20260506105522 17 155 0.0 0.0 0.00 0.00 0.00 71 1015.6
20260506105020 16 154 0.0 0.0 0.00 0.00 0.00 71 1015.8
20260506104518 16 168 0.0 0.0 0.00 0.00 0.00 72 1015.6
20260506104016 16 175 0.0 0.0 0.00 0.00 0.00 72 1015.7
20260506103513 16 161 0.0 0.0 0.00 0.00 0.00 71 1015.8
20260506103009 16 160 0.0 0.0 0.00 0.00 0.00 71 1015.8
20260506102508 16 184 0.0 1.6 0.00 0.00 0.00 71 1015.6
20260506102005 16 337 1.6 1.6 0.00 0.00 0.00 71 1015.6
20260506101501 16 151 0.0 0.0 0.00 0.00 0.00 71 1015.5
20260506100958 17 151 0.0 0.0 0.00 0.00 0.00 70 1015.6
20260506100457 17 151 0.0 0.0 0.00 0.00 0.00 70 1015.7
20260506095954 17 151 0.0 0.0 0.00 0.00 0.00 70 1015.8
20260506095453 17 156 0.0 1.6 0.00 0.00 0.00 70 1015.7
20260506094948 17 157 0.0 1.6 0.00 0.00 0.00 70 1015.7
20260506094447 17 169 0.0 0.0 0.00 0.00 0.00 69 1015.7
20260506093944 17 158 0.0 0.0 0.00 0.00 0.00 69 1015.5
20260506093442 17 158 0.0 0.0 0.00 0.00 0.00 69 1015.9
20260506092940 17 169 0.0 1.6 0.00 0.00 0.00 69 1015.8
20260506092437 17 161 0.0 0.0 0.00 0.00 0.00 68 1015.9
20260506091934 17 152 0.0 0.0 0.00 0.00 0.00 68 1016.0
20260506091432 17 155 0.0 0.0 0.00 0.00 0.00 68 1015.9
20260506090929 17 155 0.0 0.0 0.00 0.00 0.00 67 1016.0
20260506090427 17 154 0.0 0.0 0.00 0.00 0.00 67 1016.3
20260506085923 17 159 0.0 0.0 0.00 0.00 0.00 67 1016.3
20260506085420 17 159 0.0 0.0 0.00 0.00 0.00 66 1016.3
20260506084916 17 159 0.0 0.0 0.00 0.00 0.00 66 1016.4
20260506084413 17 182 0.0 0.0 0.00 0.00 0.00 66 1016.2
20260506083909 17 153 0.0 0.0 0.00 0.00 0.00 66 1016.3
20260506083407 17 154 0.0 0.0 0.00 0.00 0.00 67 1016.3
20260506082904 17 153 0.0 0.0 0.00 0.00 0.00 67 1016.2
20260506082401 17 173 0.0 0.0 0.00 0.00 0.00 68 1016.2
20260506081856 17 190 0.0 0.0 0.00 0.00 0.00 68 1016.3
20260506081355 17 191 0.0 0.0 0.00 0.00 0.00 68 1016.6
20260506080852 17 191 0.0 0.0 0.00 0.00 0.00 67 1016.6
20260506080349 17 191 0.0 0.0 0.00 0.00 0.00 68 1016.5
20260506073333 17 190 0.0 0.0 0.00 0.00 0.00 68 1016.4
20260506072830 17 190 0.0 0.0 0.00 0.00 0.00 68 1016.6
20260506072327 17 190 0.0 0.0 0.00 0.00 0.00 68 1016.6
20260506071825 17 190 0.0 0.0 0.00 0.00 0.00 68 1016.6
20260506071323 17 190 0.0 0.0 0.00 0.00 0.00 67 1016.6
20260506070820 17 190 0.0 0.0 0.00 0.00 0.00 67 1016.5
20260506070316 17 190 0.0 0.0 0.00 0.00 0.00 67 1016.5
20260506062253 18 189 0.0 0.0 0.00 0.00 0.00 64 1016.5
20260506061749 18 189 0.0 0.0 0.00 0.00 0.00 63 1016.6
20260506061247 18 189 0.0 0.0 0.00 0.00 0.00 63 1016.9
20260506060745 18 189 0.0 0.0 0.00 0.00 0.00 62 1017.0
20260506060242 18 188 0.0 0.0 0.00 0.00 0.00 62 1016.8
20260506051208 18 163 0.0 0.0 0.00 0.00 0.00 60 1017.1
20260506050706 18 163 0.0 0.0 0.00 0.00 0.00 59 1017.0
20260506050203 19 167 0.0 0.0 0.00 0.00 0.00 59 1016.9
20260506044654 19 155 0.0 0.0 0.00 0.00 0.00 57 1016.8
20260506044151 20 157 0.0 0.0 0.00 0.00 0.00 56 1016.6
20260506043648 20 195 0.0 0.0 0.00 0.00 0.00 56 1016.8
20260506043146 20 161 0.0 0.0 0.00 0.00 0.00 56 1016.9
20260506042645 20 157 0.0 1.6 0.00 0.00 0.00 55 1016.9
20260506042142 20 157 0.0 0.0 0.00 0.00 0.00 55 1016.9
20260506041641 20 163 0.0 1.6 0.00 0.00 0.00 55 1017.0
20260506041137 20 164 0.0 1.6 0.00 0.00 0.00 55 1016.7
20260506040635 20 181 0.0 3.2 0.00 0.00 0.00 55 1016.7
20260506040132 20 157 0.0 1.6 0.00 0.00 0.00 54 1016.6
20260506035629 20 153 1.6 1.6 0.00 0.00 0.00 54 1016.6
20260506035125 20 165 0.0 1.6 0.00 0.00 0.00 55 1016.7
20260506034622 20 173 0.0 1.6 0.00 0.00 0.00 55 1016.6
20260506034119 20 157 0.0 1.6 0.00 0.00 0.00 55 1016.8
20260506033616 20 102 0.0 1.6 0.00 0.00 0.00 55 1016.8
20260506033113 20 155 0.0 0.0 0.00 0.00 0.00 56 1016.8
20260506032611 20 157 0.0 0.0 0.00 0.00 0.00 56 1016.6
20260506032108 20 157 0.0 0.0 0.00 0.00 0.00 55 1017.0
20260506031605 20 167 0.0 0.0 0.00 0.00 0.00 55 1016.7
20260506031101 20 182 0.0 0.0 0.00 0.00 0.00 55 1016.6
20260506030600 21 153 0.0 0.0 0.00 0.00 0.00 55 1016.8
20260506030057 21 167 0.0 0.0 0.00 0.00 0.00 53 1016.3
20260506025554 21 174 0.0 1.6 0.00 0.00 0.00 53 1016.3
20260506025050 21 161 0.0 1.6 0.00 0.00 0.00 52 1016.2
20260506024547 21 163 0.0 0.0 0.00 0.00 0.00 51 1016.3
20260506024043 21 160 0.0 1.6 0.00 0.00 0.00 50 1016.1
20260506023539 21 184 0.0 1.6 0.00 0.00 0.00 49 1016.3
20260506023037 21 183 0.0 0.0 0.00 0.00 0.00 49 1016.3
20260506022534 21 183 0.0 0.0 0.00 0.00 0.00 49 1016.3
20260506022032 20 184 0.0 0.0 0.00 0.00 0.00 49 1016.3
20260506021529 21 183 0.0 0.0 0.00 0.00 0.00 50 1016.3
20260506021026 21 183 0.0 0.0 0.00 0.00 0.00 47 1016.5
20260506020524 21 183 0.0 0.0 0.00 0.00 0.00 47 1016.2
20260506020021 20 183 0.0 0.0 0.00 0.00 0.00 47 1016.2
20260506015518 20 183 0.0 0.0 0.00 0.00 0.00 49 1016.4
20260506015015 20 184 0.0 0.0 0.00 0.00 0.00 51 1016.2
20260506014513 20 184 0.0 0.0 0.00 0.00 0.00 52 1016.3
20260506014009 20 184 0.0 0.0 0.00 0.00 0.00 53 1016.3
20260506013507 20 184 0.0 0.0 0.00 0.00 0.00 53 1016.2
20260506013003 20 184 0.0 0.0 0.00 0.00 0.00 55 1016.3
20260506012459 20 184 0.0 0.0 0.00 0.00 0.00 50 1016.1
20260506011956 20 184 0.0 0.0 0.00 0.00 0.00 52 1016.2
20260506011453 20 184 0.0 0.0 0.00 0.00 0.00 51 1016.3
20260506010950 20 184 0.0 0.0 0.00 0.00 0.00 50 1016.3
20260506010449 20 183 0.0 0.0 0.00 0.00 0.00 51 1016.0
20260506005945 20 183 0.0 0.0 0.00 0.00 0.00 50 1015.9
20260506005443 21 183 0.0 0.0 0.00 0.00 0.00 51 1016.1
20260506004937 21 183 0.0 0.0 0.00 0.00 0.00 47 1015.8
20260506004436 21 183 0.0 0.0 0.00 0.00 0.00 47 1015.8
20260506003932 21 183 0.0 0.0 0.00 0.00 0.00 47 1015.7
20260506003428 22 183 0.0 0.0 0.00 0.00 0.00 44 1015.4
20260506002925 22 183 0.0 0.0 0.00 0.00 0.00 42 1015.4
20260506002421 22 183 0.0 0.0 0.00 0.00 0.00 40 1015.5
20260506001916 22 183 0.0 0.0 0.00 0.00 0.00 39 1015.4
20260506001414 23 183 0.0 0.0 0.00 0.00 0.00 38 1015.2
20260506000911 23 183 0.0 0.0 0.00 0.00 0.00 37 1015.3
20260506000409 23 183 0.0 0.0 0.00 0.00 0.00 36 1015.3
20260505235905 23 183 0.0 0.0 0.00 0.00 0.00 36 1015.3
20260505235403 23 183 0.0 0.0 0.00 0.00 0.00 36 1015.4
20260505234900 24 183 0.0 0.0 0.00 0.00 0.00 35 1015.3
20260505234357 24 183 0.0 0.0 0.00 0.00 0.00 35 1015.4
20260505233854 24 183 0.0 0.0 0.00 0.00 0.00 35 1015.4
20260505233352 25 183 0.0 0.0 0.00 0.00 0.00 36 1015.5
20260505232849 25 183 0.0 0.0 0.00 0.00 0.00 38 1015.4
20260505232347 25 172 0.0 0.0 0.00 0.00 0.00 37 1015.2
20260505231843 25 166 0.0 0.0 0.00 0.00 0.00 37 1015.3
20260505231341 25 186 0.0 0.0 0.00 0.00 0.00 39 1015.3
20260505230839 25 185 0.0 0.0 0.00 0.00 0.00 36 1015.4
20260505230336 25 181 0.0 0.0 0.00 0.00 0.00 36 1015.4
20260505225832 25 164 0.0 0.0 0.00 0.00 0.00 34 1015.4
20260505225330 25 178 0.0 0.0 0.00 0.00 0.00 37 1015.6
20260505224825 26 194 0.0 0.0 0.00 0.00 0.00 33 1015.7
20260505224323 26 194 0.0 1.6 0.00 0.00 0.00 33 1015.8
20260505223820 26 184 0.0 1.6 0.00 0.00 0.00 31 1015.7
20260505223317 26 188 0.0 0.0 0.00 0.00 0.00 32 1015.6
20260505222812 26 189 0.0 1.6 0.00 0.00 0.00 33 1015.7
20260505222309 27 188 0.0 0.0 0.00 0.00 0.00 31 1015.5
20260505221806 27 206 1.6 1.6 0.00 0.00 0.00 29 1015.4
20260505221302 27 154 0.0 3.2 0.00 0.00 0.00 27 1015.3
20260505220759 27 177 0.0 0.0 0.00 0.00 0.00 31 1015.6
20260505220257 27 186 0.0 3.2 0.00 0.00 0.00 28 1015.5
20260505215755 27 185 0.0 3.2 0.00 0.00 0.00 30 1015.5
20260505215252 27 202 1.6 3.2 0.00 0.00 0.00 30 1015.4
20260505214750 27 187 0.0 1.6 0.00 0.00 0.00 29 1015.4
20260505214247 27 184 0.0 0.0 0.00 0.00 0.00 31 1015.5
20260505213744 26 196 0.0 1.6 0.00 0.00 0.00 31 1015.5
20260505213242 27 183 0.0 0.0 0.00 0.00 0.00 30 1015.7
20260505212737 27 186 0.0 1.6 0.00 0.00 0.00 29 1015.7
20260505212235 27 220 1.6 3.2 0.00 0.00 0.00 27 1015.6
20260505211732 27 180 0.0 1.6 0.00 0.00 0.00 27 1015.7
20260505211229 27 169 0.0 3.2 0.00 0.00 0.00 30 1015.8
20260505210725 27 208 1.6 3.2 0.00 0.00 0.00 27 1015.9
20260505210222 27 249 3.2 4.8 0.00 0.00 0.00 27 1015.8
20260505205720 27 189 1.6 3.2 0.00 0.00 0.00 30 1015.8
20260505205218 27 179 0.0 3.2 0.00 0.00 0.00 28 1015.7
20260505204714 27 187 1.6 3.2 0.00 0.00 0.00 28 1016.0
20260505204212 27 180 0.0 1.6 0.00 0.00 0.00 28 1015.9
20260505203709 27 227 1.6 1.6 0.00 0.00 0.00 27 1015.9
20260505203206 27 198 1.6 3.2 0.00 0.00 0.00 29 1016.0
20260505202701 27 148 0.0 1.6 0.00 0.00 0.00 28 1016.1
20260505202158 27 163 1.6 3.2 0.00 0.00 0.00 27 1016.2
20260505201654 27 191 1.6 3.2 0.00 0.00 0.00 27 1016.2
20260505201152 28 188 0.0 1.6 0.00 0.00 0.00 25 1016.1
20260505200650 28 191 1.6 1.6 0.00 0.00 0.00 25 1016.4
20260505200147 28 179 0.0 1.6 0.00 0.00 0.00 26 1016.6
20260505195642 28 199 1.6 3.2 0.00 0.00 0.00 26 1016.3
20260505195140 28 205 1.6 3.2 0.00 0.00 0.00 24 1016.5
20260505194637 28 197 1.6 1.6 0.00 0.00 0.00 25 1016.5
20260505194133 28 170 0.0 1.6 0.00 0.00 0.00 25 1016.6
20260505193630 27 179 0.0 3.2 0.00 0.00 0.00 25 1016.8
20260505193127 27 188 0.0 1.6 0.00 0.00 0.00 29 1016.9
20260505192626 27 241 3.2 4.8 0.00 0.00 0.00 25 1016.9
20260505192123 27 183 1.6 1.6 0.00 0.00 0.00 26 1017.0
20260505191621 28 188 1.6 3.2 0.00 0.00 0.00 28 1016.8
20260505191119 27 180 0.0 3.2 0.00 0.00 0.00 29 1016.9
20260505190614 27 184 0.0 1.6 0.00 0.00 0.00 28 1017.0
20260505190109 28 232 1.6 3.2 0.00 0.00 0.00 26 1017.2
20260505185607 29 212 1.6 1.6 0.00 0.00 0.00 24 1017.2
20260505185103 29 172 0.0 0.0 0.00 0.00 0.00 27 1017.1
20260505184559 29 227 1.6 1.6 0.00 0.00 0.00 26 1017.4
20260505184056 28 190 1.6 3.2 0.00 0.00 0.00 26 1017.5
20260505183553 28 258 1.6 3.2 0.00 0.00 0.00 24 1017.7
20260505183051 28 255 1.6 3.2 0.00 0.00 0.00 24 1017.8